Location: Allentsteig
(48.6833°N, 15.3167°E)
Time: 02:15:40
(UTC+00:00)

Cosmos 2026 Rocket - Pass Details

Date: 18 September 2020
Orbit: 940 x 1000 km, 82.9° (Epoch: 29 October)

Event Time Altitude Azimuth Distance (km) Brightness Sun altitude
Rises 19:56:05 0° 348° (NNW) 3,716 7.8 -27.1°
Reaches altitude 10° 19:58:38 10° 345° (NNW) 2,769 7.0 -27.4°
Maximum altitude 20:04:54 62° 267° (W) 1,119 4.4 -28.2°
Enters shadow 20:06:55 42° 208° (SSW) 1,391 4.6 -28.4°
